Location: Stockholm
(59.3330°N, 18.0500°E)
Time: 08:24:35
(UTC+02:00)

AO-109 - Pass Details

Date: 02 April 2023
Orbit: 441 x 460 km, 60.7° (Epoch: 06 June)

Event Time Altitude Azimuth Distance (km) Brightness Sun altitude
Rises 21:17:38 0° 288° (WNW) 2,444 ? -13.1°
Reaches altitude 10° 21:20:56 10° 255° (WSW) 1,565 ? -13.5°
Maximum altitude 21:22:10 12° 234° (SW) 1,471 ? -13.6°
Drops below altitude 10° 21:23:23 10° 213° (SSW) 1,560 ? -13.7°
Enters shadow 21:25:10 - 191° (S) 1,953 ? -13.9°
